FREGAT R/B (47720 NORAD) Tracking and Keplerian Element Data

This shows tracking and keplerian element data for the satellite.

Feedback or suggestion? Click here.




ElementValue
Catalog47720
NameFREGAT R/B
Epoch Orbit31
Epoch Day77.93831087
Epoch Year2021
RAAN292.2893
Inclination63.3211
Eccentricity0.726904
Argument of Perigee269.5666
Mean Anonmoly14.8604
Mean Motion1.98969503
Decay Rate-1.173E-05
L11 47720U 21016B 21077.93831087 -.00001173 00000-0 10574-2 0 9998
L22 47720 63.3211 292.2893 7269040 269.5666 14.8604 1.98969503 318

Live tracking and technical data element details for FREGAT R/B (NORAD 47720). FREGAT R/B can be tracked NOW for your location showing map with azimuth and elevation plus other details from your city location.

Track the satellite on the map from your city or location and see movement details for azimuth, elevation, latitude, longitude, range, height, and movement on the map or in text.







IsCatalogInMostPopularTable: catalog: 47720, numindb: 10
Update: records affected: 1



GetName: 47720 FREGAT R/B

Hit Count: updated at: Sat, 10 Apr 2021 19:19:57 GMT